Regional Weather Roundup
Issued by NWS

Home | Current Version | Previous Version | Text Only | Print | Product List | Glossary On
Versions: 1 2 3 4 5 6 7 8 9 10 11 12 13 14 15 16 17 18 19 20 21 22 23 24 25 26 27 28 29 30 31 32 33 34 35 36 37 38 39 40 41 42 43 44 45 46 47 48 49 50
000
ASUS43 KMKX 231100
RWRWI

WISCONSIN REGIONAL WEATHER ROUNDUP
NATIONAL WEATHER SERVICE MILWAUKEE/SULLIVAN WI
600 AM CDT SAT SEP 23 2017

NOTE: "FAIR" INDICATES FEW OR NO CLOUDS BELOW 12,000 FEET WITH NO
SIGNIFICANT WEATHER AND/OR OBSTRUCTIONS TO VISIBILITY.

WIZ001-002-006>008-014>016-023>028-231200-
NORTHWEST WISCONSIN

CITY           SKY/WX    TMP DP  RH WIND       PRES   REMARKS
SUPERIOR ARPT  CLOUDY    64  63  97 CALM      29.87S
ASHLAND        CLOUDY    76  67  73 SW12G22   29.90R
HAYWARD        MOCLDY    74  66  76 S9        29.94S
SIREN          MOCLDY    72  66  83 S7        29.91F
CUMBERLAND     MOCLDY    68  63  83 S5        29.95S
RICE LAKE      MOCLDY    70  65  85 CALM      29.97R
CHETEK         MOCLDY    69  66  92 SE3       29.96R
LADYSMITH      CLOUDY    72  66  82 SE7       30.00R
EAU CLAIRE     PTCLDY    71  65  81 S3        29.97R
MENOMONIE      PTCLDY    69  65  88 E3        29.96R
NEW RICHMOND   PTCLDY    72  65  78 S7        29.94R
OSCEOLA        CLOUDY    73  66  78 SE3       29.95R
$$

WIZ003>005-009-010-017-018-231200-
NORTH CENTRAL WISCONSIN

CITY           SKY/WX    TMP DP  RH WIND       PRES   REMARKS
MANITOWISH WTR CLOUDY    66  66 100 S8        30.00R
ARBOR VITAE    CLOUDY    69  67  91 S5        30.01R
WOODRUFF       CLOUDY    69  67  91 S5        30.01R
RHINELANDER    PTCLDY    71  65  81 SW10      30.04R
EAGLE RIVER    PTCLDY    64  64 100 CALM      30.02R
LAND O LAKES   PTCLDY    66  65  95 S7        30.02R
PHILLIPS       PTCLDY    70  67  93 CALM      30.00R
TOMAHAWK       PTCLDY    63  62  96 CALM      30.03R FOG
MEDFORD        CLEAR     64  63  96 SE6       30.03R
MERRILL        PTCLDY    69  65  89 S3        30.04R
$$

WIZ029-030-035-036-043>047-231200-
CENTRAL WISCONSIN

CITY           SKY/WX    TMP DP  RH WIND       PRES   REMARKS
WAUSAU         PTCLDY    66  64  93 S5        30.03R
MOSINEE        CLEAR     66  64  94 CALM      30.05R
MARSHFIELD     CLEAR     67  62  84 S5        30.04R
STEVENS POINT  PTCLDY    68  64  84 S3        30.04R
WAUPACA        CLEAR     64  63  96 CALM      30.03R
WAUTOMA        CLOUDY    61  60  97 CALM      30.05R
WISC RAPIDS    CLEAR     69  64  84 S3        30.04R
CAMP DOUGLAS   NOT AVBL
$$

WIZ011>013-019>022-031-037>040-048>050-231200-
NORTHEAST WISCONSIN

CITY           SKY/WX    TMP DP  RH WIND       PRES   REMARKS
ANTIGO         CLEAR     62  62 100 SW3       30.06R
SHAWANO        CLEAR     69  65  87 CALM      30.02R
OCONTO         CLEAR     62  61  97 CALM      30.01R
STURGEON BAY   CLEAR     73  64  73 SW7       30.03R
GREEN BAY      CLEAR     67  66  97 SW5       30.03R
MANITOWOC      CLEAR     66  63  90 SE3       30.05R
APPLETON       PTCLDY    70  61  73 SW5       30.03R
CLINTONVILLE   CLEAR     64  63  94 CALM      30.03R
OSHKOSH        CLEAR     69  64  84 S8        30.03R
$$

WIZ032>034-041-042-053>061-231200-
SOUTHWEST WISCONSIN

CITY           SKY/WX    TMP DP  RH WIND       PRES   REMARKS
LA CROSSE      CLEAR     73  67  81 SE3       29.99R
SPARTA         CLEAR     73  64  73 CALM      30.01R
VIROQUA        CLEAR     70  65  86 S7        30.02S
BOSCOBEL       CLEAR     65  62  90 CALM      30.02R
PRAIRIE DU CHI CLEAR     68  62  80 CALM      30.00R
PLATTEVILLE    CLEAR     68  66  94 SE5       30.04R
$$

WIZ056-057-062-063-064-067-068-231200-
SOUTH CENTRAL WISCONSIN

CITY           SKY/WX    TMP DP  RH WIND       PRES   REMARKS
REEDSBURG      PTCLDY    69  64  85 CALM      30.02S
BARABOO/DELLS  PTCLDY    67  62  82 S5        30.04R
LONE ROCK      NOT AVBL
MINERAL POINT  CLEAR     70  66  88 SE3       30.05R
MADISON        PTCLDY    69  64  84 CALM      30.04R
MIDDLETON      CLEAR     66  63  91 CALM      30.05R
WATERTOWN      CLEAR     65  65 100 CALM      30.05R
MONROE         CLEAR     68  63  83 S7        30.05R
JANESVILLE     CLEAR     68  63  83 CALM      30.04R
$$

WIZ051-052-058>065-066-070>072-231200-
SOUTHEAST WISCONSIN

CITY           SKY/WX    TMP DP  RH WIND       PRES   REMARKS
MILWAUKEE      PTCLDY    76  66  71 SW8       30.05R
WAUKESHA       CLEAR     72  63  73 SW5       30.07R
MILWAUKEE/TIMM PTCLDY    68  63  83 CALM      30.06R
RACINE         CLEAR     73  66  78 W5        30.07R
BURLINGTON     CLEAR     64  64 100 CALM      30.06R
KENOSHA        CLEAR     69  63  81 CALM      30.06R
FOND DU LAC    CLEAR     70  63  78 S6        30.05R
SHEBOYGAN      CLEAR     65  65 100 CALM      30.05R
WEST BEND        N/A     63  63 100 CALM      30.05R
JUNEAU         CLEAR     66  63  89 SE3       30.06R
$$

LSZ147-162-231200-
LAKE SUPERIOR

STATION/POSITION TIME  TEMP    WIND        PRES    WAVE
                       AIR SEA DIR/SP/G            HT/PER
                 (UTC) (F)     (DEG/KT/KT) (MB)    (FT/S)
W MID LAKE BUOY  0950   63 54  220/ 14/ 16 1010.1R   2/ 4
DEVILS ISLAND    1000   71     320/  5/  6 1011.1R
SAXON HARBOR     1030   79     210/  9/ 19 1011.5R
$$

LMZ867-665-643>646-231200-
LAKE MICHIGAN

STATION/POSITION TIME  TEMP    WIND        PRES    WAVE
                       AIR SEA DIR/SP/G            HT/PER
                 (UTC) (F)     (DEG/KT/KT) (MB)    (FT/S)
S GREEN BAY BUOY 1030   70 67  210/  6/  8 1016.1R
N MID LAKE BUOY  0950   69 66  190/ 10/ 12 1016.2R   2/ 4
NORTHPORT PIER   1040   69     170/  2/  6 1015.6S
KEWAUNEE LAKESHO 1030   74     220/  5/  8 1015.8R
SHEBOYGAN LAKESH 1000   72     190/  3/  3 1016.4R
PORT WASHINGTON  1030   73     260/  3/  4 1017.9R
ATWATER BUOY     0909   74 65  200/  6/  8 1017.1
MILWAUKEE LAKESH 1030   74     170/  6/  7   N/A
S MID LAKE BUOY  0950   72 70  150/  6/  6 1017.3R   0
KENOSHA   LAKESH 1000   77     240/  7/  9 1016.9
$$

TC  - TEMPERATURE IN CELSIUS
VSB - VISIBILITY IN STATUTE MILES
WCI - WIND CHILL INDEX
HX  - HEAT INDEX





USA.gov is the U.S. government's official web portal to all federal, state and local government web resources and services.